カタログに戻る

CHOLLIMA-1 R/B

運用中SSO
NORAD 58401·ROCKET BODY·🇰🇵 North Korea

打ち上げ Nov 21, 2023 から Sohae Satellite Launching Station

Loading…

次のパス (今後24時間)

TLE

最新Source: Space-Track

元期: Sep 14, 2026, 05:40 UTC

1 58401U 23179B   26257.23656863  .00037620  00000-0  31996-3 0  9990
2 58401  97.2985 167.7376 0012958 163.8641 196.3036 15.69406695158442

AllMySatでCHOLLIMA-1 R/Bをリアルタイム追跡

Download on the App Store